Back to catalog

COSMOS 1831

AliveMilitaryPO
NORAD 17586·PAYLOAD·🇷🇺 Russia

Launched Mar 13, 1987 from Plesetsk Cosmodrome

Loading…

Next Passes (next 24 hours)

TLE

FreshSource: Space-Track

Epoch: Sep 14, 2026, 13:42 UTC

1 17586U 87026E   26257.57142751  .00000030  00000-0  10293-3 0  9995
2 17586  82.5566 113.2583 0014495 283.0925 104.1075 12.65550151824740

Track COSMOS 1831 in real time with AllMySat

Download on the App Store